Tracking 18851 objects as of 24-Nov-2017
HD Live streaming from Space Station
objects crossing your sky now

S80/T

Track S80/T now!
10-day predictions
S80/T is classified as:


NORAD ID: 22078
Int'l Code: 1992-052C
Perigee: 1,308.7 km
Apogee: 1,334.2 km
Inclination: 66.1 °
Period: 111.9 minutes
Semi major axis: 7692 km
RCS: 0.3013 m2 (medium)
Launch date: August 10, 1992
Source: France (FR)
Launch site: FRENCH GUIANA (FRGUI)
aabbcc
Your satellite tracking list
Your tracking list is empty




NASA's NSSDC Master Catalog

Two Line Element Set (TLE):
1 22078U 92052C   17326.34741078 -.00000054 +00000-0 +33025-4 0  9997
2 22078 066.0857 345.6064 0016538 285.5636 074.3557 12.86788596187848
Source of the keplerian elements: AFSPC